Starlink 11451

operational
NORAD ID: 62561 Int'l Des: 2025-006 Owner: SPXS Country: US Constellation: starlink
LEOCIRCULAR

About Starlink 11451

Description loading...

Live Position

Loading 3D Globe...

Upcoming Passes

Altitude History

Altitude vs Time

uPlot chart will show altitude changes over time

Two-Line Element Set

1 62561U 25006H 25346.25571787 .00339294 00000-0 25439-2 0 9990
2 62561 42.9985 306.7095 0001850 298.2221 61.8460 15.70814884 52850
Epoch: Dec 12, 2025 • Age: 32 hours

Current Status

Altitude 360.1 km
Velocity 7.69 km/s
Sub-Earth Point -27.76°S, 27.85°W
Launch Date Jan 10, 2025
Age 0.9 years
Type internet

Technical Details

Classification Payload
Mass 960.00 kg
Dry Mass 910.00 kg
Total Mass 960.00 kg
Length 0.30 m
Diameter 4.10 m
Span 29.00 m
Shape Box + pan
Manufacturer SPXS
Bus Type Starlink V2MD
Phase Status In Orbit
Owner/State SPXS/US

Large Constellations

Loading constellations...